Home > Weather > Spokane > Past weeks

Flag for USA Weather for the Past 2 Weeks in Spokane, Washington, USA

Now
52 °F

Passing clouds.


Feels Like: 52 °F
Forecast: 55 / 73 °F
Wind: 3 mph from Northeast

Location: Felts Field

Current Time: May 5, 2016 at 6:02:37 AM

Latest Report: May 5, 2016 at 4:53 AM


Visibility: 9 mi

Pressure: 29.91 "Hg (27.93 "Hg at 569m altitude)

Humidity: 93%

Dew Point: 50 °F

Location of SpokaneLocation

Historic Weather in Spokane — Graph

°F

Spokane Temperature Yesterday

Maximum temperature yesterday: 77 °F (at 2:53 PM)
Minimum temperature yesterday: 54 °F (at 1:53 AM)
Average temperature yesterday: 65 °F

High & Low Weather Summary for the Past Weeks

 TemperatureHumidityPressure
High86 °F (Apr 20, 4:53 PM)96% (Apr 30, 3:53 AM)30.27 "Hg (Apr 30, 3:53 AM)
Low37 °F (Apr 25, 5:53 AM)17% (May 3, 4:53 PM)29.52 "Hg (Apr 22, 4:53 AM)
Average58 °F59%29.93 "Hg
* Reported Apr 20 4:53 AM — May 5 4:53 AM, Spokane, Weather by CustomWeather, © 2016

Note: Actual official high and low records may vary slightly from our data, if they occured in-between our weather recording intervals... More about our weather records

Advertising

Spokane Weather History for the Previous 24 Hours

Scroll right to see more
 ConditionsComfort  
Time TempWeatherWind HumidityBarometerVisibility
4:53 AM
Thu, May 5
52 °FPassing clouds.3 mph93%29.91 "Hg9 mi
3:53 AM53 °FPassing clouds.3 mph93%29.90 "Hg10 mi
2:53 AM53 °FClear.3 mph93%29.88 "Hg10 mi
1:53 AM55 °FClear.No wind90%29.85 "Hg10 mi
12:53 AM56 °FThundershowers. Mostly cloudy.5 mph87%29.85 "Hg10 mi
11:53 PM
Wed, May 4
59 °FMostly cloudy.17 mph75%29.88 "Hg10 mi
11:00 PM62 °FThundershowers. Passing clouds.16 mph62%29.85 "Hg10 mi
9:53 PM60 °FPassing clouds.3 mph65%29.79 "Hg10 mi
8:53 PM64 °FSunny.No wind56%29.79 "Hg10 mi
7:53 PM70 °FSunny.No wind44%29.78 "Hg10 mi
6:53 PM72 °FSunny.3 mph41%29.79 "Hg10 mi
5:53 PM75 °FScattered clouds.5 mph34%29.80 "Hg10 mi
4:53 PM76 °FSunny.5 mph32%29.83 "Hg10 mi
3:53 PM77 °FSunny.6 mph33%29.85 "Hg10 mi
2:53 PM77 °FSunny.6 mph33%29.87 "Hg10 mi
1:53 PM76 °FPassing clouds.No wind36%29.89 "Hg10 mi
12:53 PM75 °FPassing clouds.No wind37%29.92 "Hg10 mi
11:53 AM73 °FPassing clouds.3 mph41%29.94 "Hg10 mi
10:53 AM69 °FPassing clouds.No wind47%29.96 "Hg10 mi
9:53 AM66 °FPassing clouds.5 mph52%29.98 "Hg10 mi
8:53 AM62 °FSunny.6 mph58%29.98 "Hg10 mi
7:53 AM62 °FSunny.No wind56%29.98 "Hg10 mi
6:53 AM56 °FPassing clouds.No wind75%29.96 "Hg10 mi
Weather by CustomWeather, © 2016

See weather overviewHow to use our weather pages